Probability
9 8 8 6 3 1 0 0 0 0 0 0 0 0 0 0 0 0 0 0 0 0 0 0 0 0 0 0 0 0 0 0 0 0 0 0 0 0 0 0 0 0 0
9 9 8 7 4 3 2 1 1 1 0 0 0 0 0 0 0 0 0 0 0 0 0 0 0 0 0 0 0 0 0 0 0 0 0 0 0 0 0 0 0 0 0
9 8 9 9 8 7 5 3 3 2 1 0 0 0 0 0 0 1 1 1 0 0 0 0 0 0 0 0 0 0 0 0 0 0 0 0 0 0 0 0 0 0 0
10 10 11 12 12 11 8 6 6 5 2 1 1 0 0 0 0 1 2 1 0 0 0 0 0 0 0 0 0 0 0 0 0 0 0 0 0 0 0 0 0 0 0
16 15 15 17 17 14 11 9 8 6 4 3 3 1 0 0 0 1 1 1 0 0 0 0 0 0 0 0 0 1 1 0 0 0 0 1 1 1 0 0 0 0 0
19 17 18 22 22 20 17 15 12 11 11 10 8 4 1 0 0 0 0 0 0 0 0 0 0 0 0 0 0 1 1 0 0 1 1 2 2 2 1 0 0 0 0
16 15 18 24 28 27 25 22 20 20 21 21 18 12 6 2 1 1 1 0 0 0 0 0 0 0 0 0 0 1 1 0 0 1 1 3 6 6 3 1 0 0 0
13 13 14 19 26 29 28 27 26 25 26 28 26 20 11 5 4 3 2 1 0 0 0 0 0 0 0 0 0 0 0 0 0 0 1 5 11 11 6 2 1 0 0
16 13 10 12 18 23 24 25 25 25 25 24 22 17 11 7 6 5 4 3 1 1 1 1 0 0 0 0 0 0 0 0 0 0 1 6 13 13 8 4 2 0 1
25 19 13 12 14 16 18 20 22 23 22 18 13 10 8 7 6 5 5 5 3 2 2 2 2 1 1 0 0 0 0 0 0 1 3 8 15 14 9 5 3 1 1
35 28 21 18 16 15 15 17 18 18 18 15 9 6 6 6 6 5 6 8 7 4 3 3 4 3 2 1 1 2 1 0 0 1 6 15 20 16 11 7 5 3 2
41 35 29 25 21 17 17 18 17 16 16 12 8 7 8 9 10 11 14 16 14 8 4 3 4 4 3 2 3 3 1 0 1 2 8 19 24 20 14 11 8 5 4
44 39 34 33 30 27 25 23 21 21 20 16 13 13 12 12 14 19 25 26 22 14 9 7 6 6 5 5 4 3 2 2 3 5 10 18 23 21 17 14 11 7 5
50 45 41 41 42 42 38 31 28 27 26 24 22 20 18 17 19 23 28 30 26 20 16 14 12 10 9 8 6 3 3 4 6 9 13 17 21 21 19 15 10 6 5
51 47 45 45 48 50 47 39 35 33 30 29 29 28 25 25 25 25 27 28 27 24 22 20 18 16 15 12 8 5 4 6 9 12 14 18 21 22 21 17 13 9 7
49 46 44 43 45 49 48 42 37 36 35 34 35 33 31 30 29 29 29 29 27 27 27 23 20 19 18 13 8 6 6 8 12 15 17 19 21 22 22 21 18 14 11
47 44 41 39 42 46 45 39 35 36 38 39 38 35 31 29 29 31 32 32 30 29 28 25 22 21 18 13 10 9 10 12 16 20 23 24 23 21 21 23 20 16 15
44 41 36 35 39 42 40 34 33 35 38 39 38 34 30 28 28 30 32 33 30 28 27 25 24 24 21 16 13 11 13 17 21 26 28 27 23 19 19 20 17 14 14
39 35 31 30 34 37 35 31 32 33 35 36 35 31 26 24 24 26 27 27 26 25 25 25 27 26 22 18 13 13 17 22 26 29 29 26 22 19 17 16 15 13 12
31 30 28 27 28 29 28 28 28 29 29 29 28 25 22 19 19 19 18 17 18 19 21 23 23 22 20 16 12 13 20 26 28 28 26 23 21 18 16 15 15 14 12
23 25 24 22 22 23 23 23 22 22 22 21 19 19 18 17 15 12 10 9 11 14 16 16 15 15 14 13 11 13 18 22 22 22 20 18 16 15 13 13 14 14 12
20 21 19 17 18 20 22 21 19 17 15 12 11 12 13 13 11 8 5 5 7 10 12 10 9 8 7 8 8 9 11 12 12 13 15 12 10 10 10 10 11 11 11
19 18 16 14 15 18 20 19 16 14 11 7 4 5 6 6 6 5 3 3 5 7 9 8 7 4 3 3 4 5 5 5 4 7 9 8 6 6 7 7 7 8 9
15 14 13 13 15 17 17 15 12 9 7 4 3 2 2 2 2 2 2 3 4 5 6 7 5 3 2 2 3 4 4 3 2 3 5 5 4 5 6 5 5 6 7
12 12 12 13 14 16 15 12 8 6 4 4 5 4 2 1 0 0 1 2 4 4 5 6 3 2 3 3 3 3 3 2 1 1 2 2 3 4 4 4 4 5 5
12 12 12 12 13 14 13 11 8 5 4 5 6 5 3 2 1 0 1 2 3 4 4 4 3 2 3 3 3 3 3 2 1 0 0 1 2 2 2 2 2 3 4
Wind_Speed
16 15 14 12 12 11 12 12 12 12 11 11 11 10 10 10 10 11 11 10 10 10 9 9 8 8 7 8 9 10 10 10 10 11 12 12 11 11 10 8 7 10 13
18 15 14 12 12 11 12 12 12 12 11 10 10 10 9 9 9 9 9 9 9 9 9 9 8 8 8 7 7 7 7 7 7 8 9 10 10 10 10 11 11 9 11
18 15 14 12 12 11 12 12 12 12 12 11 10 9 9 8 8 8 8 8 8 8 8 8 7 7 7 7 6 5 5 4 4 4 6 6 8 9 10 11 13 11 10
16 13 13 13 12 12 12 12 12 12 12 11 10 9 8 8 7 7 7 7 7 7 7 7 7 6 6 5 4 3 2 1 3 4 5 3 7 10 9 9 10 10 9
15 14 14 13 13 12 12 12 12 12 11 11 10 9 8 7 7 6 6 6 6 6 6 5 5 5 4 3 3 1 1 3 5 7 5 4 7 10 9 8 8 8 8
15 15 14 13 13 12 12 12 11 11 11 10 10 9 8 7 6 5 5 5 5 5 4 4 4 3 2 2 1 1 3 5 8 7 3 6 8 10 9 8 7 6 6
15 15 14 13 12 12 12 11 11 10 10 9 8 8 7 6 5 5 4 4 4 4 3 3 3 2 1 0 1 2 4 7 8 7 2 5 10 12 10 8 7 6 5
15 16 13 13 13 12 11 10 10 9 9 8 7 7 6 5 5 4 4 4 4 3 3 2 2 1 1 1 2 4 5 8 8 6 1 6 12 12 10 8 6 5 5
14 15 12 11 11 11 11 10 9 9 8 7 7 6 5 5 5 4 4 3 3 3 3 2 2 3 3 3 4 5 6 8 9 6 2 5 11 12 10 8 6 6 5
12 11 11 11 10 9 9 10 9 8 7 6 6 5 5 5 5 5 5 4 4 4 3 3 4 4 5 6 6 7 7 8 7 5 1 6 10 11 10 8 7 6 6
10 9 9 9 8 7 8 9 8 7 5 5 4 4 4 4 4 5 5 6 5 4 4 5 5 6 7 8 9 9 7 5 5 2 1 7 9 9 9 8 7 7 7
9 8 7 8 7 6 6 7 4 4 4 3 2 3 3 2 2 3 5 7 6 6 6 7 7 7 7 5 8 9 4 6 3 1 3 9 8 8 8 7 7 7 7
8 7 6 7 5 5 5 5 3 2 3 2 1 1 1 1 1 1 2 3 4 5 4 5 5 4 4 3 2 4 5 4 1 2 5 8 8 7 6 6 6 7 7
8 6 6 6 5 5 3 3 3 2 2 1 0 1 1 1 2 1 1 1 2 2 2 2 2 2 3 4 4 3 3 2 0 2 5 8 7 6 6 6 6 6 7
8 7 6 6 5 4 3 1 2 2 2 2 2 1 1 1 2 1 1 0 1 1 2 1 2 2 2 4 4 3 2 2 2 3 3 6 6 5 4 5 6 7 7
7 7 6 6 5 4 3 2 2 2 2 2 2 1 1 1 2 2 1 1 1 1 1 1 2 1 1 3 3 3 3 3 3 2 2 3 4 4 3 2 3 5 6
7 6 5 5 5 5 4 3 2 2 2 2 2 2 2 2 2 2 1 1 1 1 1 1 2 1 2 2 2 2 2 2 2 2 2 1 2 3 2 1 1 1 3
7 6 5 5 5 4 4 3 2 2 2 2 2 2 3 3 3 3 2 1 2 2 1 1 1 1 1 1 1 1 1 1 1 1 1 1 1 1 1 1 0 0 1
6 6 5 5 5 4 3 2 2 2 2 2 3 3 3 3 4 3 2 2 2 2 1 2 1 1 1 1 1 1 1 1 1 0 1 2 1 1 1 1 1 1 1
6 5 5 5 5 3 2 2 2 2 2 3 3 3 4 3 4 3 2 2 3 2 2 2 2 2 1 1 2 2 1 0 0 1 1 2 2 3 3 2 1 2 2
6 6 5 5 4 3 2 1 2 2 2 2 3 4 4 4 5 4 4 3 3 2 2 3 2 2 1 1 1 1 1 1 1 2 2 3 4 4 4 4 3 2 2
6 6 5 5 4 3 2 1 1 1 2 2 3 4 5 4 4 4 4 4 3 2 2 2 2 2 1 1 1 1 1 0 1 2 3 3 3 3 4 4 4 4 3
7 6 5 5 4 4 3 2 2 1 1 2 3 3 4 4 4 4 4 4 4 3 3 3 3 3 2 2 1 1 1 1 1 2 3 3 3 3 3 3 5 4 4
7 7 6 6 5 5 4 3 2 2 2 3 3 3 3 4 4 4 4 4 4 4 4 4 4 3 3 3 2 1 1 1 1 1 2 3 4 4 4 4 5 5 5
7 7 6 5 5 5 5 4 4 4 3 3 2 2 2 3 4 4 4 4 4 3 4 4 3 3 3 2 2 2 2 1 1 1 2 2 3 3 3 4 4 4 4
7 7 6 6 6 6 6 5 5 4 3 3 3 2 2 2 3 5 5 5 4 3 3 3 3 3 3 3 2 2 1 1 1 0 1 2 2 2 3 3 4 3 4
Wind_Direction
111 112 111 114 121 125 127 128 127 123 120 118 112 106 100 94 90 88 88 89 90 92 92 91 89 84 78 74 71 71 74 78 81 84 87 86 83 80 77 75 104 92 95
112 113 109 113 119 124 126 128 130 126 124 123 119 114 109 102 97 92 91 92 93 94 94 92 91 89 87 87 85 83 84 89 97 105 109 103 95 86 75 65 74 98 101
110 116 112 111 116 121 125 127 129 129 128 126 125 121 116 109 103 99 96 95 94 95 96 95 92 92 91 94 95 95 98 108 126 147 159 132 113 100 89 84 89 97 99
114 120 112 113 114 118 122 125 128 131 132 131 129 126 122 117 110 105 102 100 98 97 96 96 95 94 94 97 99 103 121 181 221 224 226 149 121 113 105 99 99 101 102
111 108 109 113 114 117 123 126 129 132 134 133 133 132 129 125 117 113 110 106 101 100 100 100 98 99 100 102 104 114 228 261 266 259 253 118 110 125 119 114 110 110 110
118 113 112 112 115 117 122 127 130 132 133 135 135 135 132 127 124 122 120 115 109 105 104 104 103 105 105 102 111 262 279 283 287 270 235 136 126 133 130 128 124 121 120
119 114 115 113 114 116 120 123 126 127 128 130 132 134 133 131 130 129 130 126 122 119 115 113 111 119 133 155 265 279 285 292 281 289 290 118 127 137 137 138 138 137 136
116 113 115 113 116 117 118 120 121 123 124 125 127 131 133 136 141 144 145 142 143 145 144 143 152 173 220 258 273 281 288 291 283 295 3 110 136 142 144 147 150 154 156
113 120 128 125 121 118 116 118 120 120 123 124 128 135 142 152 161 164 160 162 166 171 179 188 199 214 234 252 263 273 281 286 291 292 286 126 144 146 150 157 163 165 167
114 121 128 133 133 137 131 127 126 126 127 132 142 153 166 179 185 184 179 180 189 197 208 219 226 235 241 248 253 259 269 284 275 286 330 130 150 151 154 164 173 178 182
106 114 124 128 134 138 139 135 139 138 135 147 164 181 197 209 199 195 201 176 198 212 222 229 235 241 246 245 246 250 260 260 266 284 65 138 155 158 161 170 180 189 194
111 112 119 119 127 138 134 136 154 154 146 172 179 200 223 246 225 195 174 180 202 221 230 233 241 251 251 248 233 234 247 246 250 199 130 144 157 160 165 173 184 195 203
113 105 105 115 121 122 121 142 146 140 147 186 196 221 253 291 267 161 160 181 205 223 229 224 230 245 257 269 244 212 235 249 217 142 136 146 157 155 164 176 185 198 205
104 98 92 97 87 78 93 127 133 130 136 132 110 1 345 308 300 292 191 193 202 223 225 233 237 243 271 274 266 244 252 259 326 100 135 150 154 158 172 188 196 209 211
95 83 68 70 74 78 74 48 91 89 120 149 146 91 333 311 308 306 281 205 253 233 221 224 251 275 282 293 289 287 297 320 10 70 127 142 145 152 176 204 211 218 220
89 82 73 77 75 77 85 83 63 69 62 63 74 66 348 348 323 318 328 324 308 341 8 330 296 290 294 297 307 319 333 344 3 28 107 137 145 143 155 194 215 219 222
86 80 75 86 70 62 60 58 66 59 50 51 56 35 3 359 339 322 321 330 353 330 330 307 304 295 271 282 291 309 338 342 351 18 36 88 133 145 135 108 90 198 224
88 81 65 69 75 69 64 50 44 43 45 46 56 43 10 359 351 327 327 349 341 319 332 294 280 298 318 320 323 318 325 353 12 51 29 51 60 106 153 128 136 257 245
89 85 77 71 71 67 71 73 68 61 43 48 53 42 12 354 356 339 336 360 335 328 337 320 5 350 335 329 302 270 284 342 15 36 78 62 51 56 56 83 72 27 287
92 85 81 75 65 61 70 79 83 80 66 60 59 43 24 7 5 351 333 1 342 349 2 360 351 338 309 286 290 321 0 309 84 65 57 60 56 51 41 29 26 20 30
98 89 81 71 59 49 45 49 81 72 70 67 65 51 38 23 9 0 356 349 348 355 358 352 347 335 319 306 309 300 286 280 104 81 70 58 57 56 51 41 31 14 16
105 92 81 71 56 39 25 25 69 82 75 76 59 49 37 28 13 12 8 348 355 350 358 356 346 327 307 314 299 267 238 221 63 78 82 71 52 49 47 42 34 29 23
105 94 82 69 55 36 23 46 69 82 82 80 67 54 35 22 23 18 6 355 349 352 11 2 356 344 326 311 294 274 270 223 117 79 72 66 56 48 46 39 42 36 36
108 95 82 70 57 39 31 40 56 65 68 60 53 60 46 25 24 23 14 4 4 9 12 6 18 349 337 322 324 323 312 321 212 130 96 77 69 56 46 39 38 37 37
109 100 91 79 64 51 45 44 55 61 61 61 57 62 58 41 30 23 20 11 12 13 18 10 360 353 341 336 335 333 326 308 253 186 151 121 83 56 47 38 39 40 35
110 104 97 84 72 62 56 52 56 62 59 60 57 43 54 48 35 24 23 15 10 9 7 360 352 348 349 342 331 322 317 315 325 14 141 134 113 74 52 38 38 38 44